Dallas Addison, TX

11:15 AM CDT on October 20, 2017 (GMT -0500)
Addison

Weather History for KADS - May, 2013

Change the Weather History Date:

Monday, May 6, 2013

  Actual Average Record
Temperature  
Mean Temperature 63 °F -  
Max Temperature 75 °F 79 °F 98 °F (1998)
Min Temperature 51 °F 62 °F 51 °F (1999)
Degree Days  
Heating Degree Days 2    
Growing Degree Days 13 (Base 50)    
Moisture  
Dew Point 47 °F    
Average Humidity 58    
Maximum Humidity 82    
Minimum Humidity 38    
Precipitation  
Precipitation 0.00 in - - ()
Sea Level Pressure  
Sea Level Pressure 30.07 in    
Wind  
Wind Speed 1 mph (NNW)    
Max Wind Speed 10 mph    
Max Gust Speed -    
Visibility 12 miles    
Events      
Averages and records for this station are not official NWS values.
T = Trace of Precipitation, MM = Missing Value Source: NWS Daily Summary

Daily Weather History Graph

Daily Weather History Graph

Search for Another Location

Airport or City:

Trip Planner

Search our weather history database for the weather conditions in past years. The results will help you decide how hot, cold, wet, or windy it might be!

Date:

Astronomy

May. 06, 2013 Rise Set
Actual Time 6:34 AM CDT 8:13 PM CDT
Civil Twilight 6:08 AM CDT 8:40 PM CDT
Nautical Twilight 5:36 AM CDT 9:12 PM CDT
Astronomical Twilight 5:02 AM CDT 9:46 PM CDT
Moon 4:27 AM CDT (5/6) 5:22 PM CDT (5/6)
Length of Visible Light 14h 31m
Length of Day
13h 38m
Waning Crescent, 11% of the Moon is Illuminated
May 6
Waning Crescent
May 9
New
May 17
First Quarter
May 24
Full
May 31
Last Quarter

Hourly Weather History & Observations

Time (CDT) Temp. Dew Point Humidity Pressure Visibility Wind Dir Wind Speed Gust Speed Precip Events Conditions
12:15 AM 57.2 °F 42.8 °F 59% 30.10 in 10.0 mi Calm Calm - N/A   Clear
12:35 AM 57.2 °F 42.8 °F 59% 30.10 in 10.0 mi Calm Calm - N/A   Clear
12:55 AM 57.2 °F 42.8 °F 59% 30.10 in 10.0 mi Calm Calm - N/A   Clear
1:35 AM 55.4 °F 44.6 °F 67% 30.09 in 10.0 mi Calm Calm - N/A   Clear
1:55 AM 55.4 °F 44.6 °F 67% 30.09 in 10.0 mi Calm Calm - N/A   Clear
2:15 AM 55.4 °F 44.6 °F 67% 30.09 in 10.0 mi Calm Calm - N/A   Clear
2:35 AM 53.6 °F 44.6 °F 72% 30.09 in 10.0 mi Calm Calm - N/A   Clear
2:55 AM 53.6 °F 44.6 °F 72% 30.08 in 10.0 mi Calm Calm - N/A   Clear
3:15 AM 53.6 °F 44.6 °F 72% 30.08 in 10.0 mi Calm Calm - N/A   Clear
3:35 AM 53.6 °F 44.6 °F 72% 30.08 in 10.0 mi Calm Calm - N/A   Clear
3:55 AM 53.6 °F 44.6 °F 72% 30.08 in 10.0 mi Calm Calm - N/A   Clear
4:15 AM 53.6 °F 44.6 °F 72% 30.08 in 10.0 mi NW 3.5 mph - N/A   Clear
4:35 AM 51.8 °F 44.6 °F 76% 30.08 in 10.0 mi Calm Calm - N/A   Clear
4:55 AM 53.6 °F 44.6 °F 72% 30.08 in 10.0 mi Calm Calm - N/A   Clear
5:15 AM 51.8 °F 44.6 °F 76% 30.08 in 10.0 mi Calm Calm - N/A   Clear
5:35 AM 53.6 °F 46.4 °F 77% 30.09 in 10.0 mi WNW 3.5 mph - N/A   Clear
5:47 AM 51.8 °F 46.4 °F 82% 30.09 in 13.0 mi West 3.5 mph - N/A   Clear
5:55 AM 51.8 °F 44.6 °F 76% 30.09 in 10.0 mi Calm Calm - N/A   Clear
6:50 AM 51.8 °F 46.4 °F 82% 30.11 in 13.0 mi Calm Calm - N/A   Clear
7:45 AM 57.2 °F 48.2 °F 72% 30.12 in 13.0 mi West 4.6 mph - N/A   Clear
8:55 AM 60.8 °F 48.2 °F 63% 30.13 in 15.0 mi NW 4.6 mph - N/A   Clear
10:47 AM 66.2 °F 48.2 °F 52% 30.13 in 15.0 mi NW 4.6 mph - N/A   Mostly Cloudy
11:58 AM 68.0 °F 48.2 °F 49% 30.12 in 15.0 mi NNW 6.9 mph - N/A   Scattered Clouds
12:52 PM 69.8 °F 50.0 °F 49% 30.09 in 13.0 mi NNW 9.2 mph - N/A   Mostly Cloudy
1:50 PM 71.6 °F 50.0 °F 46% 30.06 in 13.0 mi Calm Calm - N/A   Mostly Cloudy
2:56 PM 75.2 °F 50.0 °F 41% 30.04 in 13.0 mi NE 10.4 mph - N/A   Mostly Cloudy
3:49 PM 75.2 °F 48.2 °F 38% 30.02 in 13.0 mi NE 5.8 mph - N/A   Mostly Cloudy
4:47 PM 75.2 °F 48.2 °F 38% 30.01 in 15.0 mi Calm Calm - N/A   Mostly Cloudy
5:47 PM 75.2 °F 50.0 °F 41% 30.01 in 13.0 mi WNW 4.6 mph - N/A   Overcast
6:47 PM 73.4 °F 50.0 °F 44% 30.01 in 13.0 mi NNW 3.5 mph - N/A   Overcast
7:48 PM 73.4 °F 48.2 °F 41% 30.02 in 15.0 mi NW 3.5 mph - N/A   Overcast
8:47 PM 73.4 °F 48.2 °F 41% 30.02 in 15.0 mi NNW 3.5 mph - N/A   Overcast
9:47 PM 73.4 °F 48.2 °F 41% 30.03 in 20.0 mi Calm Calm - N/A   Overcast
10:15 PM 71.6 °F 46.4 °F 41% 30.03 in 10.0 mi Calm Calm - N/A   Clear
10:35 PM 71.6 °F 46.4 °F 41% 30.03 in 10.0 mi Calm Calm - N/A   Clear
10:55 PM 69.8 °F 50.0 °F 49% 30.03 in 10.0 mi Calm Calm - N/A   Clear
11:15 PM 69.8 °F 50.0 °F 49% 30.03 in 10.0 mi Calm Calm - N/A   Clear
11:35 PM 69.8 °F 48.2 °F 46% 30.03 in 10.0 mi Calm Calm - N/A   Clear
11:55 PM 69.8 °F 48.2 °F 46% 30.03 in 10.0 mi ENE 3.5 mph - N/A   Clear